This is the latest recevied weather packets stored in our database for station/object EA4URC-10. If no packets are shown the sender has not sent any weather packets the latest 10 day(s).
| Time | Temp. | Humidity | Pressure | Rain* | Wind** | Luminosity | Snow |
|---|---|---|---|---|---|---|---|
| 1777601005 | 8.89° C | 100% | 1033.7 hPa | - | - | - | - |
| 1777599205 | 9.44° C | 100% | 1033.9 hPa | - | - | - | - |
| 1777597404 | 9.44° C | 100% | 1033.9 hPa | - | - | - | - |
| 1777595604 | 10° C | 100% | 1034.1 hPa | - | - | - | - |
| 1777593806 | 10.56° C | 74% | 1033.9 hPa | - | - | - | - |
| 1777592000 | 11.67° C | 66% | 1033.9 hPa | - | - | - | - |
| 1777590199 | 11.11° C | 68% | 1033.7 hPa | - | - | - | - |
| 1777588401 | 11.11° C | 67% | 1033.7 hPa | - | - | - | - |
| 1777586598 | 11.11° C | 66% | 1033.8 hPa | - | - | - | - |
| 1777584798 | 11.67° C | 63% | 1033.8 hPa | - | - | - | - |
| 1777583004 | 11.67° C | 65% | 1033.6 hPa | - | - | - | - |
| 1777581205 | 11.67° C | 63% | 1033.4 hPa | - | - | - | - |
| 1777579402 | 12.22° C | 51% | 1033.4 hPa | - | - | - | - |
| 1777577602 | 12.78° C | 50% | 1033.1 hPa | - | - | - | - |
| 1777576320 | 13.33° C | 51% | 1032.6 hPa | - | - | - | - |
| 1777575801 | 13.33° C | 51% | 1032.6 hPa | - | - | - | - |
| 1777574001 | 15° C | 48% | 1032.4 hPa | - | - | - | - |
| 1777572200 | 16.11° C | 46% | 1032.2 hPa | - | - | - | - |
| 1777570400 | 16.67° C | 43% | 1032.2 hPa | - | - | - | - |
| 1777568599 | 17.22° C | 40% | 1032.2 hPa | - | - | - | - |
| 1777566798 | 17.78° C | 39% | 1032.4 hPa | - | - | - | - |
| 1777564998 | 18.89° C | 38% | 1032.4 hPa | - | - | - | - |
| 1777563197 | 19.44° C | 36% | 1032.4 hPa | - | - | - | - |
| 1777561397 | 21.11° C | 34% | 1032.2 hPa | - | - | - | - |
| 1777559604 | 21.67° C | 33% | 1032.3 hPa | - | - | - | - |
* Rain since midnight (hover to see other rain measurements)
** Current wind speed in m/s (hover to see current wind gust speed)